Погода в Набережных Челнах

Россия / Республика Татарстан     55°44′36″N   52°23′45″E
темп.,
°C
ветер,
м/с
пор.,
м/с
влажн.,
%
обл.,
%
осадки,
мм/ч
давл.,
гПа
погр.,
м
18 января, вт
вт1800:00−8ююз71788100 0.0 1003660
03:00−8ююз71689100 0.1 1004644
06:00−7ююз71691100 0.1 1004645
09:00−5ююз71691100 0.3 1005679
12:00−3ююз71593100 0.4 1006743
15:00−3ююз71593100 0.8 1007678
18:00−3ююз71593100 0.4 1009692
21:00−3ююз71692100 0.6 1009682
19 января, ср
ср1900:00−2юз81593100 0.3 1010815
03:00−2юз81591100 0.6 1011754
06:00−2юз81690100 0.1 1012686
09:00−3юз7149292 0.2 1013680
12:00−2юз7139398 0.1 1014756
15:00−2юз6119498 0.6 1015783
18:00−6зюз239896 0.3 101733
21:00−8ююв009885 0.8 101810
20 января, чт
чт2000:00
03:00−8ююз259682 0.4 101972
06:00−9ююз4109435 0.1 1020197
09:00
12:00−7юз5119396 0.1 1022439
15:00−7юз4109279 0.1 1022359
18:00−11ююз399411 0.0 1023146
21:00−11юз3119638 0.0 1024188
21 января, пт
пт2100:00−8юз4997100 0.0 1024258
03:00−4юз5785100 0.1 1025474
06:00−4юз3786100 0.0 1026338
09:00−5ю2693100 0.1 1027220
12:00−7ю35879 0.0 1027178
15:00−12юв22935 0.0 102812
18:00−17юв229530 0.0 102910
21:00−18юв2297100 0.0 102912
22 января, сб
сб2200:00−18юв229982 0.0 103013
03:00−19вюв2210052 0.0 103014
06:00−20вюв2210066 0.0 103114
09:00−18юв239998 0.0 103148
12:00−11юв248589 0.0 1032127
15:00−14вюв2292100 0.0 103214
18:00−18юв119486 0.0 10349
21:00−18вюв2293100 0.0 103420